Temp
-13 -13 -14 -14 -13 -13 -13 -14 -14 -15 -15 -16 -16 -16 -16 -16 -16 -16 -16 -17 -17 -17 -17 -17 -17 -16 -17 -17 -17 -17 -17 -20 -20 -19 -18 -19 -21 -20 -20 -21 -21 -22 -22 -22
-14 -14 -14 -14 -14 -14 -14 -15 -16 -16 -16 -16 -16 -16 -16 -16 -16 -17 -17 -18 -18 -19 -18 -19 -17 -17 -17 -18 -17 -18 -18 -19 -21 -20 -20 -20 -21 -22 -22 -23 -22 -22 -22 -22
-14 -14 -15 -14 -15 -15 -16 -16 -16 -16 -16 -16 -16 -16 -16 -17 -17 -17 -18 -18 -18 -19 -18 -19 -19 -18 -18 -18 -19 -20 -21 -21 -22 -22 -22 -22 -22 -22 -22 -24 -23 -23 -23 -23
-15 -15 -15 -16 -16 -16 -16 -16 -16 -16 -16 -17 -17 -17 -17 -17 -18 -18 -19 -18 -19 -19 -20 -20 -21 -21 -20 -20 -21 -22 -24 -24 -24 -24 -24 -24 -24 -24 -24 -24 -24 -24 -23 -23
-15 -16 -16 -16 -17 -16 -17 -17 -17 -16 -17 -17 -17 -17 -18 -18 -18 -18 -18 -19 -20 -21 -22 -24 -23 -24 -25 -24 -24 -25 -25 -25 -25 -25 -24 -24 -24 -24 -23 -24 -24 -25 -24 -23
-16 -16 -17 -17 -17 -17 -17 -17 -17 -17 -17 -18 -18 -19 -19 -19 -18 -19 -21 -22 -22 -22 -24 -26 -26 -27 -27 -28 -28 -26 -26 -26 -26 -25 -24 -24 -24 -24 -24 -24 -24 -24 -24 -24
-17 -17 -17 -17 -17 -18 -18 -18 -18 -18 -18 -19 -20 -20 -20 -21 -22 -22 -23 -25 -26 -26 -27 -28 -28 -29 -29 -29 -28 -27 -27 -26 -26 -25 -25 -25 -24 -24 -24 -25 -24 -25 -24 -24
-17 -18 -18 -18 -19 -19 -19 -20 -20 -20 -19 -20 -22 -22 -22 -23 -23 -25 -27 -27 -29 -30 -30 -30 -30 -29 -29 -29 -28 -27 -27 -26 -26 -26 -25 -24 -24 -25 -25 -24 -24 -24 -24 -24
-18 -19 -19 -19 -20 -20 -20 -20 -20 -20 -20 -23 -24 -25 -26 -27 -27 -28 -29 -30 -31 -31 -31 -30 -30 -30 -29 -28 -28 -27 -26 -26 -26 -25 -25 -24 -25 -25 -25 -24 -24 -24 -25 -24
-20 -20 -19 -19 -19 -20 -22 -23 -23 -25 -26 -27 -28 -28 -29 -29 -30 -30 -30 -30 -31 -31 -31 -31 -30 -30 -29 -29 -28 -27 -27 -26 -26 -25 -25 -25 -25 -25 -25 -25 -25 -25 -25 -25
-20 -19 -20 -21 -22 -24 -26 -27 -28 -28 -29 -29 -29 -29 -30 -30 -30 -30 -31 -31 -32 -31 -31 -31 -30 -30 -30 -29 -28 -28 -27 -27 -26 -26 -26 -25 -25 -25 -25 -25 -25 -25 -25 -25
-21 -22 -23 -25 -26 -27 -27 -29 -29 -29 -29 -29 -29 -30 -31 -31 -31 -32 -32 -33 -32 -32 -31 -31 -31 -30 -29 -28 -28 -28 -27 -27 -26 -26 -25 -25 -25 -25 -25 -25 -25 -25 -25 -25
-24 -25 -26 -27 -27 -28 -28 -29 -30 -29 -29 -29 -30 -31 -31 -32 -33 -33 -33 -33 -33 -32 -32 -31 -31 -30 -30 -29 -28 -27 -27 -27 -26 -26 -26 -25 -25 -25 -25 -26 -26 -25 -25 -25
-25 -26 -27 -28 -28 -29 -30 -30 -30 -30 -30 -30 -31 -31 -31 -33 -33 -33 -33 -33 -33 -32 -32 -31 -30 -30 -30 -29 -28 -27 -27 -26 -26 -25 -26 -25 -26 -26 -26 -26 -25 -25 -25 -25
-27 -28 -29 -30 -30 -30 -31 -31 -31 -31 -31 -30 -30 -32 -33 -34 -33 -33 -33 -33 -32 -32 -31 -30 -30 -30 -29 -29 -28 -27 -27 -26 -26 -26 -26 -26 -26 -26 -26 -26 -26 -26 -25 -25
-29 -31 -31 -32 -32 -32 -31 -31 -31 -31 -31 -30 -32 -33 -33 -32 -32 -32 -32 -31 -31 -31 -31 -30 -30 -30 -29 -28 -27 -27 -27 -26 -26 -26 -26 -26 -26 -26 -26 -26 -25 -25 -26 -26
-31 -31 -33 -32 -32 -32 -31 -31 -31 -31 -31 -31 -32 -32 -32 -31 -31 -31 -31 -31 -31 -31 -30 -30 -30 -29 -29 -27 -27 -27 -27 -26 -27 -26 -26 -26 -26 -26 -26 -26 -26 -26 -26 -26
-31 -32 -32 -32 -32 -32 -31 -31 -32 -32 -31 -31 -31 -31 -31 -30 -31 -31 -30 -30 -30 -30 -30 -29 -28 -28 -27 -27 -27 -27 -27 -27 -26 -26 -26 -26 -26 -26 -26 -26 -26 -26 -27 -27
-32 -32 -32 -31 -31 -32 -32 -31 -31 -30 -30 -30 -30 -30 -30 -30 -30 -30 -30 -30 -29 -29 -28 -28 -27 -27 -27 -27 -27 -27 -27 -26 -26 -26 -26 -26 -26 -26 -26 -26 -26 -27 -27 -26
-31 -31 -31 -31 -31 -30 -30 -30 -30 -30 -30 -30 -30 -29 -29 -29 -29 -29 -28 -28 -28 -28 -28 -27 -27 -27 -27 -27 -27 -27 -26 -26 -26 -26 -26 -26 -26 -26 -26 -26 -27 -27 -27 -27
-30 -30 -30 -30 -30 -30 -30 -30 -30 -30 -30 -29 -29 -29 -29 -29 -28 -28 -28 -28 -27 -27 -27 -27 -27 -27 -27 -27 -27 -27 -27 -27 -27 -27 -26 -26 -26 -26 -26 -26 -26 -26 -26 -26
-29 -29 -29 -30 -30 -30 -30 -30 -30 -29 -29 -29 -29 -29 -29 -29 -29 -28 -28 -28 -28 -27 -27 -27 -27 -27 -27 -27 -27 -27 -27 -27 -27 -27 -27 -26 -26 -26 -26 -26 -26 -26 -26 -26
-29 -29 -29 -29 -29 -29 -29 -29 -29 -28 -28 -29 -29 -28 -28 -28 -28 -28 -28 -28 -27 -27 -27 -27 -27 -27 -27 -27 -27 -27 -27 -27 -27 -27 -27 -27 -26 -26 -26 -26 -26 -26 -26 -26
-28 -29 -28 -28 -28 -29 -29 -29 -29 -28 -28 -28 -28 -28 -28 -28 -28 -28 -28 -28 -28 -27 -27 -28 -28 -28 -28 -28 -27 -28 -27 -27 -27 -27 -27 -27 -27 -26 -26 -26 -26 -26 -26 -26
-29 -28 -28 -29 -29 -29 -29 -29 -29 -29 -28 -28 -28 -29 -28 -28 -28 -28 -28 -28 -28 -28 -28 -28 -28 -28 -28 -28 -28 -28 -28 -28 -28 -27 -27 -27 -27 -27 -26 -26 -26 -26 -26 -26
-29 -28 -28 -28 -29 -29 -29 -29 -29 -29 -29 -29 -29 -28 -28 -28 -28 -28 -28 -28 -28 -28 -28 -28 -28 -28 -28 -28 -28 -28 -28 -28 -28 -28 -27 -27 -27 -27 -27 -26 -26 -26 -26 -26
-28 -29 -29 -29 -29 -29 -29 -29 -28 -28 -28 -29 -29 -29 -29 -28 -28 -28 -29 -29 -29 -29 -28 -28 -28 -28 -28 -28 -28 -28 -28 -28 -28 -28 -28 -28 -28 -27 -27 -27 -27 -26 -26 -26
Height
5670 5668 5666 5665 5663 5662 5661 5660 5658 5657 5656 5656 5655 5657 5656 5653 5650 5643 5641 5640 5638 5634 5633 5630 5627 5630 5626 5633 5621 5617 5619 5586 5586 5594 5604 5598 5591 5595 5595 5582 5577 5577 5570 5570
5653 5652 5649 5649 5648 5647 5646 5645 5646 5645 5643 5643 5642 5642 5640 5635 5633 5630 5627 5623 5621 5615 5617 5598 5608 5606 5613 5600 5601 5589 5589 5579 5565 5569 5578 5583 5576 5578 5576 5565 5556 5555 5556 5559
5637 5635 5634 5633 5633 5631 5633 5633 5633 5633 5631 5628 5627 5624 5624 5619 5616 5613 5608 5604 5597 5594 5592 5587 5578 5581 5585 5583 5573 5572 5563 5557 5552 5549 5553 5559 5556 5558 5556 5548 5544 5542 5542 5545
5623 5622 5621 5620 5620 5619 5619 5619 5618 5617 5615 5612 5608 5604 5604 5600 5597 5593 5586 5585 5574 5569 5565 5563 5556 5553 5552 5560 5557 5549 5543 5535 5537 5535 5538 5541 5538 5537 5540 5537 5535 5529 5532 5529
5607 5607 5606 5605 5605 5605 5604 5601 5600 5600 5598 5593 5588 5582 5583 5579 5576 5572 5567 5559 5554 5550 5542 5539 5533 5534 5530 5528 5536 5529 5528 5518 5522 5520 5525 5523 5523 5526 5525 5525 5527 5523 5521 5522
5593 5592 5590 5589 5588 5586 5583 5582 5582 5580 5580 5573 5566 5563 5558 5558 5551 5553 5545 5534 5531 5528 5523 5517 5517 5514 5513 5510 5511 5517 5513 5510 5509 5512 5513 5511 5514 5518 5509 5514 5516 5516 5514 5516
5580 5577 5576 5573 5571 5568 5566 5564 5563 5563 5562 5552 5544 5543 5538 5534 5531 5524 5526 5516 5507 5506 5503 5499 5498 5498 5499 5498 5501 5502 5501 5501 5501 5502 5503 5503 5508 5505 5506 5507 5510 5510 5507 5508
5564 5561 5558 5556 5553 5550 5546 5545 5544 5543 5541 5530 5525 5520 5516 5514 5509 5502 5497 5500 5493 5488 5489 5486 5484 5487 5486 5487 5490 5491 5491 5492 5492 5493 5494 5495 5495 5496 5496 5499 5501 5500 5501 5501
5548 5546 5541 5538 5535 5531 5525 5523 5522 5520 5518 5512 5505 5505 5498 5497 5493 5493 5488 5484 5481 5479 5480 5478 5477 5476 5477 5478 5480 5482 5482 5483 5485 5487 5486 5487 5489 5490 5492 5492 5492 5495 5496 5496
5531 5528 5526 5521 5516 5512 5505 5499 5499 5499 5499 5496 5492 5492 5487 5484 5478 5478 5477 5473 5472 5470 5473 5473 5472 5472 5471 5472 5471 5476 5475 5477 5477 5480 5481 5482 5483 5485 5485 5487 5491 5489 5489 5491
5514 5511 5506 5501 5496 5491 5488 5481 5484 5485 5488 5487 5481 5477 5474 5470 5466 5463 5463 5460 5460 5462 5464 5465 5465 5463 5463 5464 5465 5468 5471 5473 5474 5476 5478 5479 5479 5478 5480 5482 5483 5484 5486 5485
5495 5490 5486 5482 5478 5475 5476 5471 5472 5475 5479 5482 5474 5465 5460 5457 5455 5451 5451 5450 5450 5452 5455 5457 5457 5460 5460 5460 5461 5464 5469 5470 5472 5473 5475 5473 5475 5474 5472 5476 5478 5478 5479 5479
5477 5473 5469 5467 5463 5461 5463 5460 5461 5465 5468 5468 5463 5457 5451 5446 5443 5440 5441 5443 5441 5443 5446 5448 5452 5454 5456 5457 5460 5462 5465 5468 5471 5469 5471 5469 5470 5468 5467 5470 5473 5473 5472 5471
5456 5453 5451 5449 5449 5449 5452 5453 5453 5452 5452 5455 5454 5447 5443 5437 5434 5434 5433 5434 5434 5435 5439 5442 5447 5450 5453 5455 5457 5461 5463 5465 5467 5465 5463 5463 5463 5463 5464 5466 5467 5467 5466 5466
5435 5434 5434 5435 5438 5441 5444 5445 5443 5443 5444 5445 5446 5438 5433 5429 5428 5428 5426 5426 5427 5431 5435 5438 5443 5447 5449 5453 5455 5458 5459 5460 5460 5460 5459 5460 5459 5460 5461 5462 5461 5460 5460 5459
5417 5422 5425 5426 5431 5435 5439 5440 5438 5437 5436 5435 5433 5432 5429 5427 5425 5424 5423 5423 5425 5429 5433 5438 5442 5444 5447 5450 5451 5454 5454 5456 5457 5457 5458 5458 5458 5458 5458 5457 5456 5454 5452 5450
5409 5415 5419 5424 5428 5432 5434 5435 5434 5432 5431 5429 5430 5430 5429 5428 5428 5427 5426 5426 5428 5430 5432 5437 5440 5444 5445 5448 5450 5452 5454 5455 5455 5455 5454 5454 5453 5452 5450 5446 5443 5440 5440 5440
5410 5416 5421 5425 5428 5429 5429 5429 5428 5428 5430 5430 5431 5432 5432 5431 5430 5429 5429 5429 5430 5432 5434 5438 5441 5442 5446 5447 5449 5451 5452 5453 5453 5452 5450 5448 5446 5444 5440 5435 5432 5431 5430 5430
5418 5420 5423 5425 5426 5426 5426 5426 5428 5430 5434 5434 5435 5435 5435 5434 5433 5432 5431 5430 5430 5432 5435 5438 5441 5445 5447 5448 5450 5450 5450 5449 5448 5446 5444 5441 5439 5435 5433 5429 5426 5425 5424 5424
5424 5426 5427 5428 5429 5429 5431 5433 5434 5436 5437 5438 5438 5438 5437 5436 5435 5434 5433 5433 5434 5438 5441 5443 5445 5447 5448 5449 5449 5449 5448 5447 5446 5444 5440 5436 5433 5432 5429 5426 5423 5420 5419 5420
5438 5437 5437 5437 5437 5438 5438 5438 5440 5440 5441 5441 5441 5440 5438 5438 5437 5436 5436 5436 5438 5438 5443 5444 5445 5446 5443 5446 5446 5446 5445 5443 5440 5437 5434 5432 5430 5429 5425 5423 5422 5420 5420 5420
5449 5448 5446 5445 5444 5443 5444 5443 5444 5444 5443 5443 5443 5441 5441 5441 5440 5439 5440 5441 5442 5442 5444 5445 5445 5445 5444 5443 5443 5442 5440 5437 5435 5432 5430 5427 5425 5423 5422 5420 5419 5418 5417 5417
5456 5454 5453 5451 5450 5448 5448 5447 5447 5447 5447 5446 5445 5445 5444 5443 5442 5442 5442 5442 5443 5443 5443 5443 5443 5442 5442 5441 5440 5438 5436 5433 5430 5428 5426 5424 5423 5420 5419 5417 5416 5415 5414 5414
5459 5457 5456 5454 5453 5452 5451 5450 5449 5449 5448 5447 5447 5446 5445 5444 5443 5443 5443 5443 5442 5442 5442 5441 5439 5439 5438 5437 5435 5433 5431 5428 5426 5424 5422 5421 5419 5418 5416 5415 5414 5413 5412 5411
5460 5458 5456 5454 5453 5452 5451 5450 5450 5449 5447 5447 5446 5445 5444 5443 5443 5442 5442 5441 5440 5439 5439 5437 5436 5435 5433 5432 5430 5428 5426 5424 5423 5420 5418 5417 5416 5414 5413 5412 5411 5410 5409 5408
5457 5456 5455 5454 5452 5451 5450 5449 5448 5447 5445 5444 5443 5443 5442 5441 5440 5439 5438 5437 5436 5435 5433 5432 5431 5429 5427 5426 5424 5423 5421 5420 5418 5416 5414 5412 5410 5409 5408 5408 5407 5406 5405 5404
5451 5451 5450 5449 5448 5447 5446 5444 5443 5442 5441 5440 5439 5438 5437 5437 5435 5435 5434 5432 5431 5429 5427 5425 5423 5422 5420 5418 5417 5416 5415 5414 5412 5410 5409 5407 5405 5402 5401 5401 5401 5400 5400 5399
Wind_Speed
67 63 65 68 67 66 68 67 58 53 49 48 48 48 52 54 57 62 61 62 61 62 62 64 67 70 71 68 73 74 73 79 81 80 77 74 67 70 69 70 69 65 64 66
60 65 69 71 63 61 58 52 50 49 52 52 56 54 57 60 64 65 65 66 66 67 69 75 73 75 74 77 77 81 80 82 82 85 81 75 68 64 60 64 68 64 63 61
58 60 62 62 58 54 55 54 53 55 57 58 59 63 66 67 67 70 71 72 74 76 77 76 80 81 79 77 79 78 78 80 78 75 72 66 59 53 49 52 55 56 57 57
58 61 59 57 57 56 57 58 58 59 63 66 69 70 71 71 73 73 75 78 78 79 80 81 80 80 81 77 76 75 70 67 63 63 57 50 51 45 44 44 46 53 51 55
60 61 63 58 59 59 60 62 63 66 68 72 73 75 74 77 80 85 86 84 82 80 80 77 80 77 74 76 68 59 51 56 49 50 45 44 49 43 37 37 35 35 34 34
61 59 57 58 62 67 69 69 70 72 72 74 76 75 77 80 85 82 80 80 80 79 75 73 71 66 61 49 43 35 36 43 47 46 32 32 30 27 17 22 24 24 25 20
63 64 67 68 70 71 73 73 75 76 75 73 73 75 77 78 76 78 73 68 68 65 59 56 50 47 48 44 39 40 34 39 37 32 26 27 25 33 31 26 26 25 28 23
67 67 68 69 70 71 73 72 71 73 73 74 72 74 74 70 68 61 56 50 44 39 36 36 34 37 41 38 35 29 29 33 21 19 24 26 29 29 30 25 26 27 25 19
68 69 69 69 66 69 72 73 75 75 77 68 64 59 51 46 40 36 36 37 36 35 33 32 30 30 29 22 17 20 18 15 20 19 21 21 23 20 20 25 23 13 17 22
65 65 68 70 72 73 67 62 62 58 52 44 40 36 34 33 34 34 34 33 31 32 29 24 18 16 13 22 27 19 22 19 19 24 27 28 29 17 21 18 15 15 20 19
66 69 68 66 63 56 51 51 48 45 37 31 35 39 35 32 39 40 34 30 29 31 23 25 19 11 13 21 26 24 25 23 20 17 21 24 24 19 18 14 13 18 18 18
66 61 58 56 50 50 49 48 42 37 35 34 36 35 34 39 36 33 27 26 25 32 25 28 30 19 11 19 21 19 18 14 17 16 21 24 19 15 10 9 13 14 17 19
58 57 55 55 56 55 50 44 40 37 35 32 30 31 37 34 30 27 24 19 21 32 29 23 24 23 17 17 18 17 15 17 13 22 21 21 21 13 13 7 9 14 17 21
61 60 58 58 56 50 41 34 35 33 32 29 23 32 35 28 25 25 27 23 21 28 32 25 27 24 18 15 13 12 7 13 3 7 4 11 21 10 3 11 14 17 20 23
61 56 46 37 35 34 30 29 26 25 27 29 30 28 18 24 28 24 23 18 15 24 27 25 23 19 22 14 12 12 9 10 10 6 2 5 6 11 15 17 21 23 26 28
46 34 27 19 21 21 19 20 21 23 27 35 13 10 19 20 14 10 7 10 16 17 17 18 14 13 18 13 12 4 12 10 9 7 7 9 11 15 20 23 28 31 32 34
12 14 15 15 14 14 17 19 19 21 27 7 2 2 2 2 2 2 4 6 8 9 10 10 14 9 16 11 5 8 3 5 7 11 13 15 21 22 30 35 36 35 33 32
14 14 12 10 11 13 16 17 18 9 6 7 7 9 9 9 5 4 2 3 2 4 13 14 11 13 5 7 2 1 2 7 12 16 20 25 28 31 35 37 30 30 28 26
12 9 5 4 7 6 3 12 13 13 13 13 12 9 7 5 4 5 3 6 0 8 17 14 12 7 6 7 5 8 10 11 15 18 27 30 31 30 26 27 26 24 18 14
32 30 29 27 24 24 22 21 19 15 10 7 7 10 13 18 11 8 11 12 12 12 11 11 7 4 1 4 6 8 8 14 21 24 22 25 14 15 15 13 10 8 8 9
35 32 30 29 28 24 22 21 22 20 18 15 11 12 17 12 16 14 14 16 15 11 8 6 3 1 1 6 10 11 17 21 22 25 19 18 14 17 13 13 12 9 6 6
25 25 26 26 25 23 22 20 15 12 9 8 7 8 8 8 9 12 10 10 9 8 7 3 3 7 9 8 9 18 20 22 22 21 19 17 17 17 15 16 15 12 10 8
18 17 13 19 19 17 14 11 10 8 4 2 3 3 3 3 4 7 8 7 4 3 2 3 6 7 12 12 16 18 18 20 21 18 16 16 14 12 10 10 9 10 10 9
7 9 11 8 10 12 10 6 2 0 3 2 2 4 1 1 3 4 3 4 4 5 6 6 8 12 12 15 19 17 19 22 24 20 18 14 14 14 14 14 13 10 9 9
4 3 6 7 6 7 6 5 4 3 2 3 5 6 6 5 3 3 4 6 9 10 7 10 15 18 19 20 20 20 20 21 20 19 20 18 15 14 14 14 13 10 9 10
8 7 8 9 9 9 9 9 8 9 10 10 10 11 12 12 11 11 11 10 11 14 15 19 24 25 23 23 23 22 22 22 21 21 20 21 22 20 18 17 15 12 10 11
15 16 15 14 14 14 14 14 16 16 17 17 17 18 18 18 19 16 11 15 16 18 23 24 24 28 29 30 32 29 27 26 26 24 22 21 22 23 22 21 21 20 20 18
Wind_Direction
274 270 275 277 280 284 283 282 282 281 276 273 275 278 283 282 284 288 285 284 283 283 283 282 285 289 290 288 286 284 282 276 277 280 282 278 275 275 273 272 276 274 271 270
276 274 274 278 281 281 282 280 277 274 276 275 281 286 288 285 284 285 284 284 284 284 286 284 288 289 291 286 284 281 280 276 278 278 276 274 276 278 274 269 268 269 270 273
279 276 275 277 277 277 276 273 273 275 278 281 283 284 286 286 285 287 288 289 289 288 288 283 285 285 284 280 278 275 275 275 277 278 283 284 280 278 269 266 267 271 270 271
277 277 274 274 274 272 272 276 276 279 285 285 285 285 286 287 289 289 289 288 286 285 283 281 280 280 280 279 278 278 279 279 278 282 280 278 275 272 274 268 265 272 270 272
270 268 270 272 272 273 278 281 283 282 283 284 285 287 287 289 289 290 289 285 282 280 281 281 281 281 282 282 278 280 277 276 278 276 281 268 268 273 266 267 269 272 272 275
265 268 269 271 274 278 280 280 280 282 285 286 286 287 288 289 289 287 284 283 282 280 281 280 281 282 281 278 275 273 280 272 264 264 274 268 265 281 266 266 260 277 277 283
268 271 273 275 277 278 279 280 283 284 285 287 287 287 287 286 286 285 283 282 282 283 281 278 276 271 272 272 270 265 270 274 264 265 263 262 269 261 268 280 266 268 276 274
269 272 274 276 280 281 283 286 287 290 292 291 290 291 290 289 289 290 289 284 284 282 281 278 273 272 272 263 268 263 270 273 257 269 270 278 266 275 276 272 267 265 262 256
274 277 280 282 286 290 291 292 293 294 293 293 291 292 294 294 290 288 293 285 279 275 277 277 282 282 276 232 249 247 257 224 271 283 275 278 295 285 269 265 264 261 260 261
282 285 287 290 290 289 288 289 290 292 293 294 297 303 302 295 296 301 302 276 255 265 270 273 282 300 291 256 260 237 248 241 261 253 262 286 282 284 272 255 262 264 284 274
289 291 292 292 288 285 286 287 289 292 301 304 299 301 297 295 299 306 305 280 248 235 252 248 249 266 253 245 247 252 250 254 265 266 271 280 300 279 243 246 267 263 295 289
290 288 285 283 279 282 283 282 285 290 294 297 295 294 290 296 302 297 291 284 259 231 240 239 251 270 272 246 252 254 249 246 255 265 277 275 285 278 227 257 286 292 296 297
283 278 274 274 275 276 277 279 282 285 290 298 298 284 292 297 286 281 284 279 279 230 240 245 248 252 265 242 244 233 256 252 291 258 274 267 274 244 237 264 271 287 299 315
276 271 268 268 269 269 272 270 275 282 291 299 290 296 297 277 267 275 286 286 261 233 231 242 235 248 260 252 255 232 211 203 203 357 285 251 241 268 280 295 299 300 307 310
264 263 267 269 265 264 253 262 277 285 293 301 304 298 278 272 275 280 277 269 234 217 226 236 242 253 257 259 231 168 173 220 257 17 243 254 251 275 277 285 290 294 295 298
260 264 262 249 229 239 256 274 281 290 301 308 312 252 266 282 292 278 230 183 196 219 229 227 236 235 253 245 235 160 200 238 278 309 284 293 285 284 286 290 293 291 291 294
212 230 200 208 231 236 262 272 285 298 305 314 156 215 139 97 67 148 177 194 207 208 214 177 172 219 250 194 156 152 176 263 290 309 304 301 299 294 304 301 298 295 292 288
117 144 159 201 232 253 271 289 296 305 136 109 135 121 104 98 90 57 340 21 14 186 168 147 176 209 171 124 61 146 246 272 286 296 309 308 303 296 297 300 297 293 285 280
109 128 161 233 276 284 80 89 92 113 119 120 111 96 78 43 39 16 282 281 29 140 138 153 167 152 147 199 270 288 288 301 311 307 314 306 297 298 300 299 289 287 286 271
90 94 96 93 88 86 87 88 90 92 101 95 72 60 51 39 45 51 83 93 91 98 105 137 137 128 117 247 270 289 318 313 315 313 313 313 294 305 304 321 313 286 255 239
73 74 73 71 67 69 73 79 78 81 73 67 71 72 55 87 73 72 85 110 109 107 168 117 158 346 223 314 315 307 315 319 321 320 312 308 305 303 296 312 310 309 286 253
72 78 80 78 77 87 92 91 89 85 91 93 103 99 89 87 88 99 108 124 135 118 136 159 225 262 286 287 296 311 314 318 313 316 316 324 315 299 289 288 288 289 291 279
72 81 86 80 85 92 104 108 102 83 37 55 20 337 351 48 47 121 119 134 144 153 246 270 270 282 297 281 308 317 315 319 314 309 307 323 322 336 321 317 305 303 292 281
53 42 71 96 83 69 78 84 127 143 103 135 308 335 315 210 152 164 176 199 233 258 273 270 242 248 281 306 307 310 317 319 321 312 293 301 304 306 320 311 304 297 294 279
342 353 2 11 26 22 11 9 11 343 322 307 304 304 300 275 241 270 242 255 255 255 250 250 273 273 277 301 307 315 310 311 313 315 292 287 289 297 302 308 297 288 289 284
285 292 308 316 317 319 316 316 313 305 297 291 286 286 285 284 281 284 286 270 259 258 252 252 255 264 274 287 297 304 303 297 297 307 309 292 283 282 284 284 286 284 291 297
273 276 277 278 283 285 284 288 292 289 281 277 277 276 273 274 271 271 279 270 271 264 263 261 269 268 268 278 289 292 292 288 285 288 297 301 301 288 282 276 270 267 272 281